Погода в Курикка

Финляндия     62°37′17″N   22°23′34″E
темп.,
°C
ветер,
м/с
пор.,
м/с
влажн.,
%
обл.,
%
осадки,
мм/ч
давл.,
гПа
погр.,
м
27 ноября, сб
сб2723:00−11юз119621 0.0 100310
02:00−11ююв119621 0.0 10059
05:00−11ююв119684 0.0 100615
08:00−11юв119740 0.0 100715
11:00−9юв24895 0.0 100989
14:00−8вюв13915 0.0 100983
17:00−10юв2592100 0.0 1009108
20:00−10юв2691100 0.0 1009128
28 ноября, вс
вс2823:00−10вюв1593100 0.0 1009126
02:00−10в1594100 0.0 1008103
05:00−10всв1495100 0.0 100889
08:00−9всв1494100 0.0 100997
11:00−8всв2690100 0.0 1009173
14:00−7всв2683100 0.0 1008205
17:00−8св1588100 0.0 1009139
20:00−8всв2589100 0.0 1010156
29 ноября, пн
пн2923:00−7всв2589100 0.0 1011192
02:00−7в2888100 0.0 1011293
05:00−8вюв2993100 0.0 1011278
08:00−8в279491 0.0 1011255
11:00−8в2893100 0.0 1011317
14:00−8в279023 0.0 1009298
17:00−11св269636 0.0 1008122
20:00−11св279764 0.0 1006147
30 ноября, вт
вт3023:00−12ссв269870 0.0 1004147
02:00−12ссв279770 0.0 1001167
05:00−13с279884 0.0 999185
08:00−13с389670 0.0 997225
11:00−13с389576 0.0 996265
14:00−12с3109357 0.0 993353
17:00−12ссз299643 0.0 993251
20:00−12сз27965 0.0 992139
1 декабря, ср
ср123:00−12сз27955 0.0 992124
02:00−11зсз259890 0.0 992107
05:00−9зсз279369 0.0 992130
08:00−9зсз39875 0.0 993218
11:00−9сз29865 0.0 993237
14:00−9зсз25905 0.0 993129
17:00−12зсз11955 0.0 99314
20:00−13з11955 0.0 99212